Weather History for KPHD - August, 2013

Change the Weather History Date:

Thursday, August 29, 2013

  Actual Average Record
Temperature  
Mean Temperature 78 °F 70 °F  
Max Temperature 88 °F 81 °F 92 °F (1993)
Min Temperature 67 °F 58 °F 36 °F (1982)
Degree Days  
Heating Degree Days 0 0  
Month to date heating degree days 10 0  
Since 1 June heating degree days 36 38  
Since 1 July heating degree days 14 3  
Cooling Degree Days 13 5  
Month to date cooling degree days 151 190  
Year to date cooling degree days 631 610  
Since 1 June cooling degree days 533 567  
Growing Degree Days 26 (Base 50)    
Moisture  
Dew Point 66 °F    
Average Humidity 70    
Maximum Humidity 93    
Minimum Humidity 46    
Precipitation  
Precipitation 0.00 in 0.13 in - ()
Month to date precipitation 1.52 3.33  
Year to date precipitation 23.68 26.69  
Sea Level Pressure  
Sea Level Pressure 30.02 in    
Wind  
Wind Speed 2 mph (North)    
Max Wind Speed 9 mph    
Max Gust Speed 15 mph    
Visibility 6 miles    
Events      
T = Trace of Precipitation, MM = Missing Value Source: NWS Daily Summary

Daily Weather History Graph

Daily Weather History Graph

Search for Another Location

Airport or City:

Trip Planner

Search our weather history database for the weather conditions in past years. The results will help you decide how hot, cold, wet, or windy it might be!

Date:

Astronomy

Aug. 29, 2013 Rise Set
Actual Time 6:50 AM EDT 8:02 PM EDT
Civil Twilight 6:22 AM EDT 8:30 PM EDT
Nautical Twilight 5:48 AM EDT 9:03 PM EDT
Astronomical Twilight 5:13 AM EDT 9:38 PM EDT
Moon 12:40 AM EDT (8/29) 3:30 PM EDT (8/29)
Length of Visible Light 14h 08m
Length of Day
13h 11m
Last Quarter, 38% of the Moon is Illuminated
Aug 29
Last Quarter
Sep 5
New
Sep 12
First Quarter
Sep 19
Full
Sep 26
Last Quarter

Hourly Weather History & Observations

Time (EDT) Temp. Heat Index Dew Point Humidity Pressure Visibility Wind Dir Wind Speed Gust Speed Precip Events Conditions
12:53 AM 73.0 °F - 68.0 °F 84% 29.95 in 8.0 mi NW 4.6 mph - N/A   Mostly Cloudy
1:17 AM 73.4 °F - 68.0 °F 83% 29.98 in 7.0 mi NW 4.6 mph - N/A   Overcast
1:53 AM 73.0 °F - 68.0 °F 84% 29.96 in 7.0 mi Variable 5.8 mph - N/A   Overcast
2:53 AM 73.0 °F - 68.0 °F 84% 29.96 in 6.0 mi North 3.5 mph - N/A   Haze
3:14 AM 73.4 °F - 68.0 °F 83% 29.98 in 6.0 mi NW 4.6 mph - N/A   Haze
3:53 AM 73.0 °F - 68.0 °F 84% 29.96 in 5.0 mi North 4.6 mph - N/A   Haze
4:53 AM 72.0 °F - 66.9 °F 84% 29.96 in 5.0 mi North 5.8 mph - N/A   Haze
5:53 AM 72.0 °F - 66.9 °F 84% 29.98 in 5.0 mi Variable 3.5 mph - N/A   Haze
6:53 AM 72.0 °F - 66.9 °F 84% 30.00 in 6.0 mi NNE 3.5 mph - N/A   Haze
7:08 AM 71.6 °F - 66.2 °F 83% 30.02 in 6.0 mi Calm Calm - N/A   Haze
7:53 AM 72.0 °F - 66.9 °F 84% 30.02 in 5.0 mi Calm Calm - N/A   Haze
8:53 AM 73.0 °F - 68.0 °F 84% 30.04 in 3.0 mi Calm Calm - N/A   Haze
9:15 AM 73.4 °F - 68.0 °F 83% 30.06 in 5.0 mi Calm Calm - N/A   Haze
9:26 AM 73.4 °F - 68.0 °F 83% 30.06 in 5.0 mi North 4.6 mph - N/A   Haze
9:33 AM 73.4 °F - 68.0 °F 83% 30.06 in 5.0 mi North 4.6 mph - N/A   Haze
9:53 AM 73.9 °F - 68.0 °F 82% 30.04 in 5.0 mi NE 3.5 mph - N/A   Haze
10:10 AM 73.4 °F - 68.0 °F 83% 30.06 in 6.0 mi Calm Calm - N/A   Haze
10:22 AM 75.2 °F - 68.0 °F 78% 30.06 in 7.0 mi Variable 4.6 mph - N/A   Overcast
10:53 AM 77.0 °F - 68.0 °F 74% 30.05 in 7.0 mi Calm Calm - N/A   Overcast
11:53 AM 79.0 °F - 68.0 °F 69% 30.06 in 9.0 mi Calm Calm - N/A   Overcast
12:20 PM 80.6 °F 83.2 °F 68.0 °F 65% 30.07 in 9.0 mi SSE 4.6 mph - N/A   Mostly Cloudy
12:53 PM 82.9 °F 85.8 °F 68.0 °F 60% 30.04 in 10.0 mi Variable 3.5 mph - N/A   Partly Cloudy
1:53 PM 84.0 °F 86.5 °F 66.9 °F 56% 30.04 in 10.0 mi Calm Calm - N/A   Scattered Clouds
2:53 PM 87.1 °F 88.9 °F 64.9 °F 48% 30.02 in 10.0 mi NNE 4.6 mph - N/A   Partly Cloudy
3:53 PM 87.1 °F 88.9 °F 64.9 °F 48% 30.01 in 10.0 mi NE 8.1 mph - N/A   Scattered Clouds
4:53 PM 86.0 °F 87.3 °F 64.0 °F 48% 30.01 in 10.0 mi North 5.8 mph - N/A   Scattered Clouds
5:53 PM 84.0 °F 85.8 °F 64.9 °F 53% 30.01 in 10.0 mi Calm Calm - N/A   Clear
6:53 PM 82.9 °F 85.0 °F 66.0 °F 56% 30.01 in 10.0 mi Calm Calm - N/A   Clear
7:53 PM 75.0 °F - 68.0 °F 79% 30.02 in 10.0 mi Calm Calm - N/A   Clear
8:53 PM 72.0 °F - 66.9 °F 84% 30.03 in 10.0 mi Calm Calm - N/A   Clear
9:53 PM 70.0 °F - 66.9 °F 90% 30.04 in 6.0 mi Calm Calm - N/A   Clear
10:48 PM 69.8 °F - 64.4 °F 83% 30.05 in 1.8 mi Calm Calm - N/A   Haze
10:53 PM 69.1 °F - 64.0 °F 84% 30.03 in 0.5 mi Calm Calm - N/A   Haze
11:01 PM 68.0 °F - 64.4 °F 88% 30.04 in 1.5 mi Calm Calm - N/A   Clear
11:15 PM 68.0 °F - 64.4 °F 88% 30.04 in 1.0 mi Calm Calm - N/A   Clear
11:19 PM 66.2 °F - 64.4 °F 94% 30.04 in 2.5 mi Calm Calm - N/A   Clear
11:26 PM 68.0 °F - 64.4 °F 88% 30.04 in 5.0 mi Calm Calm - N/A   Clear
11:35 PM 66.2 °F - 64.4 °F 94% 30.04 in 1.8 mi Calm Calm - N/A   Clear
11:49 PM 66.2 °F - 64.4 °F 94% 30.04 in 3.0 mi Calm Calm - N/A   Clear
11:53 PM 66.9 °F - 64.0 °F 90% 30.02 in 3.0 mi Calm Calm - N/A   Clear
11:59 PM 66.2 °F - 64.4 °F 94% 30.04 in 1.2 mi Calm Calm - N/A   Clear